Home > Weather > Alexandria > Past weeks

Flag for Egypt Past Weather in Alexandria, Egypt — Yesterday and Last 2 Weeks

Now
79 °F

Clear.


Feels Like: 81 °F
Forecast: 79 / 85 °F
Wind: 9 mph from North

Location: Alexandria / Nouzha

Current Time: Jul 27, 2016 at 3:23:14 AM

Latest Report: Jul 27, 2016 at 2:00 AM


Visibility: 10 mi

Pressure: 29.74 "Hg

Humidity: 65%

Dew Point: 66 °F

Location of AlexandriaLocation

Past Weather in Alexandria — Graph

°F

Alexandria Temperature Yesterday

Maximum temperature yesterday: 88 °F (at 12:00 PM)
Minimum temperature yesterday: 77 °F (at 1:00 AM)
Average temperature yesterday: 82 °F

High & Low Weather Summary for the Past Weeks

 TemperatureHumidityPressure
High99 °F (Jul 25, 5:00 PM)88% (Jul 14, 6:00 AM)29.92 "Hg (Jul 14, 6:00 AM)
Low72 °F (Jul 14, 6:00 AM)31% (Jul 25, 5:00 PM)29.65 "Hg (Jul 19, 7:00 AM)
Average81 °F61%29.77 "Hg
* Reported Jul 12 12:00 AM — Jul 27 12:00 AM, Alexandria, Weather by CustomWeather, © 2016

Note: Actual official high and low records may vary slightly from our data, if they occured in-between our weather recording intervals... More about our weather records

Advertising

Alexandria Weather History for the Previous 24 Hours

Scroll right to see more
 ConditionsComfort  
Time TempWeatherWind HumidityBarometerVisibility
12:00 AM
Wed, Jul 27
79 °FPassing clouds.12 mph70%29.77 "HgN/A
10:00 PM
Tue, Jul 26
79 °FPassing clouds.9 mph74%29.77 "HgN/A
9:00 PM81 °FPassing clouds.10 mph70%29.77 "HgN/A
8:00 PM81 °FPassing clouds.9 mph70%29.74 "HgN/A
7:00 PM81 °FPassing clouds.10 mph70%29.74 "HgN/A
6:00 PM82 °FScattered clouds.12 mph66%29.74 "HgN/A
5:00 PM84 °FScattered clouds.12 mph62%29.74 "HgN/A
4:00 PM86 °FScattered clouds.14 mph59%29.74 "HgN/A
1:00 PM88 °FSunny.10 mph49%29.77 "Hg10 mi
12:00 PM88 °FPassing clouds.10 mph52%29.77 "HgN/A
11:00 AM86 °FScattered clouds.9 mph59%29.77 "HgN/A
10:40 AM84 °FScattered clouds.12 mph62%29.77 "HgN/A
8:00 AM82 °FSunny.12 mph70%29.74 "Hg10 mi
6:00 AM79 °FSunny.7 mph74%29.74 "Hg10 mi
4:00 AM77 °FClear.2 mph74%29.71 "Hg10 mi
3:00 AM77 °FClear.2 mph74%29.71 "Hg10 mi
Weather by CustomWeather, © 2016

See weather overviewHow to use our weather pages